Location: Coopersdale
(40.3556°N, 78.9372°W)
Time: 22:45:56
(UTC+00:00)

Courier 1B - Pass Details

Date: 24 January 2021
Orbit: 962 x 1209 km, 28.3° (Epoch: 25 February)

Event Time Altitude Azimuth Distance (km) Brightness Sun altitude
Exits shadow 10:02:57 11° 192° (SSW) 2,638 9.6 -28.2°
Drops below altitude 10° 10:03:52 10° 184° (S) 2,730 9.8 -28.0°
Sets 10:08:41 0° 154° (SSE) 3,726 10.9 -27.1°
